Regional Weather Roundup
Issued by NWS

Home | Current Version | Previous Version | Text Only | Print | Product List | Glossary On
Versions: 1 2 3 4 5 6 7 8 9 10 11 12 13 14 15 16 17 18 19 20 21 22 23 24 25 26
000
ASCA42 TJSJ 271210
RWRPR
PUERTO RICO/U.S. VIRGIN ISLANDS HOURLY WEATHER ROUNDUP
NATIONAL WEATHER SERVICE SAN JUAN PR
800 AM AST THU JUL 27 2017

PRZ001>002-007>008-010-271300-
PUERTO RICO

CITY           SKY/WX    TMP DP  RH WIND       PRES   REMARKS
SAN JUAN LMM   MOSUNNY   82  75  78 VRB3      29.99
CEIBA          MOSUNNY   84  79  84 E6        30.02R HX  96
$$

VIZ001>002-271300-
U.S. VIRGIN ISLANDS

CITY           SKY/WX    TMP DP  RH WIND       PRES   REMARKS
CHARLOTTE AMA  MOSUNNY   84  79  84 SE7       29.98R HX  96
CHRISTIANSTED  MOSUNNY   84  77  79 SE10      30.00R HX  94
$$

HOURLY WEATHER ROUNDUP FOR THE NEWS MEDIA

CITY           SKY/WX    TMP DP  RH WIND       PRES   REMARKS
ORLANDO        MOSUNNY   79  75  87 SW7       30.03S
NEW YORK       CLOUDY    69  63  81 SW8       30.07S
NEWARK         CLOUDY    68  60  75 SW8       30.06S
CHICAGO        PTSUNNY   74  69  85 N8        29.93F HAZE
HARTFORD       PTSUNNY   63  60  90 SW3       30.05S
BOSTON         CLOUDY    65  59  81 SW12      30.03S
DALLAS         PTCLDY    82  71  69 SW6       30.01S
PHILADELPHIA   CLOUDY    70  64  81 S5        30.06R
LOS ANGELES    PTCLDY    67  64  90 W5        29.96S
WASHINGTON DC  CLOUDY    71  66  84 S5        30.03F



USA.gov is the U.S. government's official web portal to all federal, state and local government web resources and services.